Weather History for Moab, UT

Change the Weather History Date:

Friday, June 1, 2012

  Actual Average Record
Temperature  
Mean Temperature 74 °F 68 °F  
Max Temperature 93 °F 85 °F 101 °F (1977)
Min Temperature 55 °F 51 °F 39 °F (1988)
Degree Days  
Heating Degree Days 0 2  
Month to date heating degree days 0 2  
Since 1 June heating degree days 0 2  
Since 1 July heating degree days 5097 5562  
Cooling Degree Days 9 5  
Month to date cooling degree days 9 5  
Year to date cooling degree days 93 69  
Since 1 June cooling degree days 9 5  
Growing Degree Days 24 (Base 50)    
Moisture  
Dew Point 28 °F    
Average Humidity 21    
Maximum Humidity 33    
Minimum Humidity 9    
Precipitation  
Precipitation 0.00 in 0.02 in 0.30 in (1984)
Month to date precipitation 0.00 0.02  
Year to date precipitation 0.65 3.22  
Sea Level Pressure  
Sea Level Pressure 29.76 in    
Wind  
Wind Speed 4 mph (WNW)    
Max Wind Speed 21 mph    
Max Gust Speed 24 mph    
Visibility 10 miles    
Events      
T = Trace of Precipitation, MM = Missing Value Source: NWS Daily Summary

Daily Weather History Graph

Daily Weather History Graph

Search for Another Location

Airport:

Trip Planner

Search our weather history database for the weather conditions in past years. The results will help you decide how hot, cold, wet, or windy it might be!

Date:

Astronomy

Jun. 01, 2012 Rise Set
Actual Time 5:55 AM MDT 8:38 PM MDT
Civil Twilight 5:24 AM MDT 9:09 PM MDT
Nautical Twilight 4:45 AM MDT 9:49 PM MDT
Astronomical Twilight 4:01 AM MDT 10:33 PM MDT
Moon 5:46 PM MDT (6/1) 3:32 AM MDT (6/1)
Length of Visible Light 15h 45m
Length of Day
14h 42m
Waxing Gibbous, 89% of the Moon is Illuminated
Jun 1
Waxing Gibbous
Jun 4
Full
Jun 11
Last Quarter
Jun 19
New
Jun 26
First Quarter

Hourly Weather History & Observations

Time (MDT) Temp. Dew Point Humidity Pressure Visibility Wind Dir Wind Speed Gust Speed Precip Events Conditions
12:53 AM 66.9 °F 28.0 °F 23% 29.79 in 10.0 mi NW 6.9 mph - N/A   Clear
1:53 AM 66.9 °F 28.9 °F 24% 29.78 in 10.0 mi WNW 6.9 mph - N/A   Clear
2:53 AM 68.0 °F 30.0 °F 24% 29.77 in 10.0 mi SW 6.9 mph - N/A   Clear
3:53 AM 64.9 °F 30.0 °F 27% 29.78 in 10.0 mi North 4.6 mph - N/A   Clear
4:53 AM 60.1 °F 28.9 °F 31% 29.81 in 10.0 mi NW 10.4 mph - N/A   Clear
5:53 AM 57.9 °F 28.0 °F 32% 29.83 in 10.0 mi Calm Calm - N/A   Clear
6:53 AM 63.0 °F 30.0 °F 29% 29.84 in 10.0 mi Calm Calm - N/A   Clear
7:53 AM 69.1 °F 30.9 °F 24% 29.83 in 10.0 mi Calm Calm - N/A   Clear
8:53 AM 75.0 °F 30.9 °F 20% 29.84 in 10.0 mi Calm Calm - N/A   Clear
9:53 AM 79.0 °F 30.0 °F 17% 29.83 in 10.0 mi East 4.6 mph - N/A   Clear
10:53 AM 81.0 °F 28.9 °F 15% 29.82 in 10.0 mi Variable 5.8 mph - N/A   Clear
11:53 AM 84.0 °F 28.9 °F 14% 29.81 in 10.0 mi WSW 9.2 mph - N/A   Clear
12:53 PM 87.1 °F 28.0 °F 12% 29.80 in 10.0 mi Calm Calm - N/A   Clear
1:53 PM 88.0 °F 28.0 °F 12% 29.77 in 10.0 mi West 8.1 mph - N/A   Clear
2:53 PM 90.0 °F 26.1 °F 10% 29.75 in 10.0 mi Variable 3.5 mph - N/A   Clear
3:53 PM 91.9 °F 24.1 °F 9% 29.73 in 10.0 mi WSW 13.8 mph 17.3 mph N/A   Clear
4:53 PM 90.0 °F 24.1 °F 9% 29.72 in 10.0 mi Variable 5.8 mph - N/A   Clear
5:53 PM 90.0 °F 25.0 °F 10% 29.71 in 10.0 mi West 6.9 mph - N/A   Clear
6:53 PM 91.0 °F 26.1 °F 10% 29.67 in 10.0 mi NNE 4.6 mph - N/A   Clear
7:53 PM 90.0 °F 26.1 °F 10% 29.65 in 10.0 mi Calm Calm - N/A   Clear
8:53 PM 82.9 °F 25.0 °F 12% 29.66 in 10.0 mi Calm Calm - N/A   Clear
9:53 PM 73.0 °F 19.9 °F 14% 29.68 in 10.0 mi Calm Calm - N/A   Clear
10:53 PM 73.0 °F 23.0 °F 15% 29.69 in 10.0 mi WSW 4.6 mph - N/A   Clear
11:53 PM 77.0 °F 34.0 °F 21% 29.68 in 10.0 mi WNW 10.4 mph - N/A   Clear